• în Republica Moldova
  • Lista ţărilor
  • Pe 7 zile
  • Temperatura apei
  • Hartă satelitară
  • Meteo pe hartă
  • Widget-uri
  • user-avatar
    Intrare

    Meteo pe oră la Vlorë

    Astăzi, 13 Decembrie, Miercuri

    Timp Temperatura Precipitaţii Vânt Presiune Umiditate
    00:00 +11°C° 0 mm 8 m/s 766 mmHg 90%
    01:00 +11°C° 0 mm 8 m/s 766 mmHg 91%
    02:00 +11°C° 0 mm 8 m/s 766 mmHg 92%
    03:00 +11°C° 0 mm 8 m/s 766 mmHg 92%
    04:00 +11°C° 0 mm 8 m/s 766 mmHg 93%
    05:00 +11°C° 0 mm 8 m/s 766 mmHg 93%
    06:00 +11°C° 0 mm 8 m/s 766 mmHg 93%
    07:00 +11°C° 0 mm 8 m/s 765 mmHg 93%
    08:00 +12°C° 0 mm 8 m/s 765 mmHg 89%
    09:00 +13°C° 0 mm 8 m/s 765 mmHg 85%
    10:00 +15°C° 0 mm 9 m/s 765 mmHg 81%
    11:00 +16°C° 0 mm 9 m/s 765 mmHg 78%
    12:00 +16°C° 0 mm 9 m/s 765 mmHg 76%
    13:00 +17°C° 0 mm 9 m/s 764 mmHg 74%
    14:00 +16°C° 0 mm 9 m/s 764 mmHg 78%
    15:00 +15°C° 0 mm 8 m/s 764 mmHg 81%
    16:00 +15°C° 0 mm 8 m/s 763 mmHg 85%
    17:00 +13°C° 0,2 mm 8 m/s 763 mmHg 86%
    18:00 +14°C° 0,2 mm 7 m/s 763 mmHg 88%
    19:00 +14°C° 0,2 mm 7 m/s 763 mmHg 90%
    20:00 +14°C° 0,7 mm 6 m/s 763 mmHg 91%
    21:00 +14°C° 0,7 mm 5 m/s 763 mmHg 92%
    22:00 +13°C° 0,7 mm 5 m/s 763 mmHg 93%
    23:00 +13°C° 0,5 mm 5 m/s 763 mmHg 93%

    Mâine, 14 Decembrie, Joi

    Timp Temperatura Precipitaţii Vânt Presiune Umiditate
    00:00 +13°C° 0,5 mm 5 m/s 763 mmHg 92%
    01:00 +13°C° 0,5 mm 5 m/s 763 mmHg 92%
    02:00 +13°C° 0,2 mm 4 m/s 763 mmHg 91%
    03:00 +12°C° 0,2 mm 4 m/s 762 mmHg 90%
    04:00 +12°C° 0,2 mm 4 m/s 762 mmHg 89%
    05:00 +12°C° 0 mm 4 m/s 762 mmHg 89%
    06:00 +11°C° 0 mm 4 m/s 763 mmHg 89%
    07:00 +11°C° 0 mm 4 m/s 763 mmHg 89%
    08:00 +12°C° 0 mm 3 m/s 763 mmHg 83%
    09:00 +13°C° 0 mm 3 m/s 763 mmHg 78%
    10:00 +14°C° 0 mm 2 m/s 764 mmHg 72%
    11:00 +15°C° 0 mm 2 m/s 763 mmHg 67%
    12:00 +15°C° 0 mm 2 m/s 763 mmHg 62%
    13:00 +16°C° 0 mm 2 m/s 763 mmHg 58%
    14:00 +15°C° 0 mm 2 m/s 763 mmHg 61%
    15:00 +13°C° 0 mm 3 m/s 763 mmHg 65%
    16:00 +13°C° 0 mm 3 m/s 763 mmHg 69%
    17:00 +12°C° 0 mm 3 m/s 763 mmHg 71%
    18:00 +12°C° 0 mm 4 m/s 763 mmHg 74%
    19:00 +11°C° 0 mm 4 m/s 763 mmHg 76%
    20:00 +10°C° 0 mm 5 m/s 763 mmHg 78%
    21:00 +10°C° 0 mm 5 m/s 763 mmHg 79%
    22:00 +9°C° 0 mm 6 m/s 763 mmHg 80%
    23:00 +9°C° 0 mm 6 m/s 763 mmHg 80%

    Poimâine, 15 Decembrie, Vineri

    Timp Temperatura Precipitaţii Vânt Presiune Umiditate
    00:00 +9°C° 0 mm 7 m/s 763 mmHg 79%
    01:00 +9°C° 0 mm 7 m/s 763 mmHg 78%
    02:00 +9°C° 0 mm 7 m/s 763 mmHg 77%
    03:00 +9°C° 0 mm 7 m/s 762 mmHg 77%
    04:00 +9°C° 0 mm 7 m/s 762 mmHg 76%
    05:00 +10°C° 0 mm 8 m/s 762 mmHg 77%
    06:00 +10°C° 0 mm 8 m/s 762 mmHg 79%
    07:00 +10°C° 0 mm 8 m/s 762 mmHg 81%
    08:00 +11°C° 0 mm 9 m/s 762 mmHg 80%
    09:00 +12°C° 0 mm 9 m/s 762 mmHg 80%
    10:00 +13°C° 0 mm 9 m/s 762 mmHg 80%
    11:00 +13°C° 0,1 mm 10 m/s 761 mmHg 80%
    12:00 +13°C° 0,1 mm 10 m/s 760 mmHg 81%
    13:00 +13°C° 0,1 mm 10 m/s 760 mmHg 81%
    14:00 +13°C° 0,1 mm 10 m/s 760 mmHg 83%
    15:00 +13°C° 0,1 mm 10 m/s 759 mmHg 85%
    16:00 +12°C° 0,1 mm 9 m/s 759 mmHg 87%
    17:00 +12°C° 0,1 mm 9 m/s 759 mmHg 88%
    18:00 +12°C° 0,1 mm 9 m/s 759 mmHg 90%
    19:00 +12°C° 0,1 mm 9 m/s 759 mmHg 91%
    20:00 +12°C° 0,1 mm 9 m/s 759 mmHg 91%
    21:00 +12°C° 0,1 mm 9 m/s 759 mmHg 91%
    22:00 +12°C° 0,1 mm 9 m/s 759 mmHg 92%
    23:00 +12°C° 0,1 mm 9 m/s 759 mmHg 92%

    16 Decembrie, Sâmbătă

    Timp Temperatura Precipitaţii Vânt Presiune Umiditate
    00:00 +12°C° 0,1 mm 9 m/s 759 mmHg 92%
    01:00 +12°C° 0,1 mm 9 m/s 758 mmHg 92%
    02:00 +12°C° 0 mm 9 m/s 758 mmHg 92%
    03:00 +12°C° 0 mm 9 m/s 758 mmHg 92%
    04:00 +12°C° 0 mm 9 m/s 757 mmHg 92%
    05:00 +13°C° 0 mm 9 m/s 757 mmHg 92%
    06:00 +13°C° 0 mm 9 m/s 757 mmHg 92%
    07:00 +13°C° 0 mm 9 m/s 757 mmHg 92%
    08:00 +13°C° 0,1 mm 9 m/s 757 mmHg 90%
    09:00 +15°C° 0,1 mm 9 m/s 757 mmHg 88%
    10:00 +16°C° 0,1 mm 9 m/s 757 mmHg 85%
    11:00 +15°C° 0,6 mm 9 m/s 757 mmHg 85%
    12:00 +14°C° 0,6 mm 10 m/s 756 mmHg 84%
    13:00 +14°C° 0,6 mm 10 m/s 756 mmHg 83%
    14:00 +13°C° 1,9 mm 9 m/s 755 mmHg 85%
    15:00 +13°C° 1,9 mm 8 m/s 754 mmHg 87%
    16:00 +14°C° 1,9 mm 7 m/s 754 mmHg 88%
    17:00 +14°C° 5,6 mm 7 m/s 753 mmHg 89%
    18:00 +14°C° 5,6 mm 7 m/s 753 mmHg 91%
    19:00 +12°C° 5,6 mm 8 m/s 752 mmHg 92%
    20:00 +12°C° 5,3 mm 7 m/s 752 mmHg 93%
    21:00 +13°C° 5,3 mm 6 m/s 752 mmHg 93%
    22:00 +13°C° 5,3 mm 6 m/s 752 mmHg 93%
    23:00 +13°C° 1,3 mm 6 m/s 752 mmHg 93%

    17 Decembrie, Duminică

    Timp Temperatura Precipitaţii Vânt Presiune Umiditate
    00:00 +11°C° 1,3 mm 6 m/s 753 mmHg 93%
    01:00 +11°C° 1,3 mm 6 m/s 753 mmHg 94%
    02:00 +11°C° 0,3 mm 6 m/s 754 mmHg 93%
    03:00 +11°C° 0,3 mm 7 m/s 754 mmHg 93%
    04:00 +11°C° 0,3 mm 7 m/s 755 mmHg 92%
    05:00 +10°C° 0,1 mm 6 m/s 756 mmHg 90%
    06:00 +10°C° 0,1 mm 6 m/s 756 mmHg 87%
    07:00 +9°C° 0,1 mm 5 m/s 757 mmHg 84%
    08:00 +10°C° 0,1 mm 5 m/s 758 mmHg 79%
    09:00 +10°C° 0,1 mm 5 m/s 758 mmHg 74%
    10:00 +12°C° 0,1 mm 5 m/s 759 mmHg 70%
    11:00 +12°C° 0,2 mm 5 m/s 759 mmHg 69%
    12:00 +12°C° 0,2 mm 5 m/s 759 mmHg 68%
    13:00 +12°C° 0,2 mm 5 m/s 759 mmHg 67%
    14:00 +12°C° 0,3 mm 5 m/s 760 mmHg 71%
    15:00 +10°C° 0,3 mm 5 m/s 760 mmHg 75%
    16:00 +9°C° 0,3 mm 5 m/s 761 mmHg 79%
    17:00 +9°C° 0,1 mm 5 m/s 761 mmHg 81%
    18:00 +8°C° 0,1 mm 5 m/s 762 mmHg 82%
    19:00 +8°C° 0,1 mm 6 m/s 762 mmHg 84%
    20:00 +8°C° 0,1 mm 6 m/s 763 mmHg 84%
    21:00 +8°C° 0,1 mm 5 m/s 763 mmHg 84%
    22:00 +7°C° 0,1 mm 5 m/s 764 mmHg 84%
    23:00 +7°C° 0,1 mm 6 m/s 764 mmHg 84%

    18 Decembrie, Luni

    Timp Temperatura Precipitaţii Vânt Presiune Umiditate
    00:00 +7°C° 0,1 mm 6 m/s 764 mmHg 84%
    01:00 +7°C° 0,1 mm 6 m/s 765 mmHg 84%
    02:00 +5°C° 0 mm 6 m/s 765 mmHg 84%
    03:00 +5°C° 0 mm 6 m/s 765 mmHg 83%
    04:00 +5°C° 0 mm 6 m/s 765 mmHg 83%
    05:00 +5°C° 0,1 mm 6 m/s 766 mmHg 84%
    06:00 +4°C° 0,1 mm 6 m/s 766 mmHg 84%
    07:00 +4°C° 0,1 mm 6 m/s 766 mmHg 84%
    08:00 +5°C° 0,1 mm 6 m/s 767 mmHg 80%
    09:00 +7°C° 0,1 mm 6 m/s 767 mmHg 75%
    10:00 +8°C° 0,1 mm 6 m/s 767 mmHg 70%
    11:00 +8°C° 0,1 mm 6 m/s 767 mmHg 67%
    12:00 +8°C° 0,1 mm 7 m/s 767 mmHg 65%
    13:00 +8°C° 0,1 mm 7 m/s 767 mmHg 62%
    14:00 +6°C° 0,1 mm 7 m/s 767 mmHg 64%
    15:00 +6°C° 0,1 mm 7 m/s 767 mmHg 67%
    16:00 +5°C° 0,1 mm 7 m/s 767 mmHg 69%
    17:00 +4°C° 0,1 mm 7 m/s 767 mmHg 71%
    18:00 +4°C° 0,1 mm 7 m/s 768 mmHg 72%
    19:00 +3°C° 0,1 mm 7 m/s 768 mmHg 74%
    20:00 +3°C° 0 mm 7 m/s 768 mmHg 75%
    21:00 +2°C° 0 mm 6 m/s 768 mmHg 75%
    22:00 +2°C° 0 mm 6 m/s 769 mmHg 76%
    23:00 +2°C° 0 mm 6 m/s 769 mmHg 76%
    Arată mai mult